When you browse on this site, cookies collect data to enhance your experience and personalize the content and advertising you see.
Visit our Privacy Policy to learn more. By continuing to use the site, you agree to this use of cookies and data.
  • In Hungary
  • List of Countries
  • For 7 days
  • Water Temperature
  • Satellite Maps
  • Weather Map
  • News
  • Weather Widgets
  • user-avatar
    Login

    Hourly Weather David

    Today, 20 November, Tuesday

    Time Temperature Precipitation Wind Pressure Humidity
    00:00 +27°C° 0.2 mm 2 mps 754 mmHg 82%
    01:00 +27°C° 0.2 mm 2 mps 753 mmHg 82%
    02:00 +27°C° 0.2 mm 2 mps 753 mmHg 83%
    03:00 +27°C° 0.2 mm 2 mps 753 mmHg 84%
    04:00 +27°C° 0.2 mm 2 mps 753 mmHg 85%
    05:00 +27°C° 0.1 mm 2 mps 753 mmHg 85%
    06:00 +27°C° 0.1 mm 2 mps 753 mmHg 85%
    07:00 +27°C° 0.1 mm 2 mps 753 mmHg 85%
    08:00 +28°C° 0 mm 2 mps 754 mmHg 80%
    09:00 +29°C° 0 mm 2 mps 754 mmHg 75%
    10:00 +31°C° 0 mm 2 mps 755 mmHg 70%
    11:00 +32°C° 0 mm 2 mps 754 mmHg 66%
    12:00 +34°C° 0 mm 3 mps 754 mmHg 62%
    13:00 +35°C° 0 mm 3 mps 753 mmHg 59%
    14:00 +34°C° 0.3 mm 3 mps 753 mmHg 64%
    15:00 +33°C° 0.3 mm 3 mps 752 mmHg 69%
    16:00 +31°C° 0.3 mm 3 mps 752 mmHg 74%
    17:00 +30°C° 0.2 mm 3 mps 752 mmHg 77%
    18:00 +29°C° 0.2 mm 2 mps 753 mmHg 81%
    19:00 +28°C° 0.2 mm 2 mps 753 mmHg 85%
    20:00 +27°C° 0.1 mm 2 mps 754 mmHg 83%
    21:00 +27°C° 0.1 mm 2 mps 754 mmHg 82%
    22:00 +27°C° 0.1 mm 2 mps 755 mmHg 80%
    23:00 +27°C° 0.3 mm 2 mps 755 mmHg 79%

    Tomorrow, 21 November, Wednesday

    Time Temperature Precipitation Wind Pressure Humidity
    00:00 +27°C° 0.3 mm 2 mps 755 mmHg 78%
    01:00 +27°C° 0.3 mm 2 mps 755 mmHg 78%
    02:00 +26°C° 0.3 mm 2 mps 754 mmHg 78%
    03:00 +26°C° 0.3 mm 2 mps 754 mmHg 79%
    04:00 +26°C° 0.3 mm 2 mps 753 mmHg 79%
    05:00 +26°C° 0.1 mm 2 mps 754 mmHg 80%
    06:00 +26°C° 0.1 mm 2 mps 754 mmHg 81%
    07:00 +26°C° 0.1 mm 2 mps 754 mmHg 82%
    08:00 +27°C° 0.1 mm 2 mps 755 mmHg 79%
    09:00 +29°C° 0.1 mm 2 mps 755 mmHg 76%
    10:00 +30°C° 0.1 mm 2 mps 756 mmHg 73%
    11:00 +30°C° 0.5 mm 2 mps 755 mmHg 73%
    12:00 +30°C° 0.5 mm 2 mps 755 mmHg 73%
    13:00 +31°C° 0.5 mm 2 mps 754 mmHg 73%
    14:00 +30°C° 1.2 mm 2 mps 754 mmHg 76%
    15:00 +30°C° 1.2 mm 2 mps 753 mmHg 79%
    16:00 +29°C° 1.2 mm 2 mps 753 mmHg 82%
    17:00 +29°C° 1.1 mm 2 mps 753 mmHg 85%
    18:00 +28°C° 1.1 mm 2 mps 753 mmHg 88%
    19:00 +27°C° 1.1 mm 2 mps 754 mmHg 91%
    20:00 +27°C° 0.5 mm 2 mps 754 mmHg 90%
    21:00 +27°C° 0.5 mm 2 mps 755 mmHg 90%
    22:00 +27°C° 0.5 mm 2 mps 755 mmHg 90%
    23:00 +26°C° 0.5 mm 2 mps 755 mmHg 90%

    Day after tomorrow, 22 November, Thursday

    Time Temperature Precipitation Wind Pressure Humidity
    00:00 +26°C° 0.5 mm 2 mps 755 mmHg 90%
    01:00 +26°C° 0.5 mm 2 mps 754 mmHg 90%
    02:00 +26°C° 0.7 mm 2 mps 754 mmHg 90%
    03:00 +26°C° 0.7 mm 2 mps 754 mmHg 90%
    04:00 +26°C° 0.7 mm 2 mps 753 mmHg 90%
    05:00 +26°C° 0.7 mm 2 mps 753 mmHg 89%
    06:00 +26°C° 0.7 mm 2 mps 754 mmHg 89%
    07:00 +26°C° 0.7 mm 1 mps 754 mmHg 89%
    08:00 +27°C° 1 mm 1 mps 755 mmHg 87%
    09:00 +27°C° 1 mm 1 mps 755 mmHg 85%
    10:00 +28°C° 1 mm 1 mps 756 mmHg 84%
    11:00 +28°C° 0.7 mm 1 mps 755 mmHg 83%
    12:00 +28°C° 0.7 mm 1 mps 754 mmHg 83%
    13:00 +29°C° 0.7 mm 1 mps 754 mmHg 83%
    14:00 +28°C° 0.5 mm 1 mps 753 mmHg 85%
    15:00 +28°C° 0.5 mm 1 mps 753 mmHg 88%
    16:00 +28°C° 0.5 mm 1 mps 752 mmHg 90%
    17:00 +27°C° 0.4 mm 1 mps 752 mmHg 90%
    18:00 +27°C° 0.4 mm 1 mps 753 mmHg 90%
    19:00 +27°C° 0.4 mm 1 mps 753 mmHg 90%
    20:00 +27°C° 0.3 mm 1 mps 754 mmHg 89%
    21:00 +27°C° 0.3 mm 1 mps 754 mmHg 88%
    22:00 +27°C° 0.3 mm 1 mps 755 mmHg 87%
    23:00 +26°C° 0.3 mm 1 mps 754 mmHg 87%

    23 November, Friday

    Time Temperature Precipitation Wind Pressure Humidity
    00:00 +26°C° 0.3 mm 1 mps 754 mmHg 87%
    01:00 +26°C° 0.3 mm 1 mps 754 mmHg 86%
    02:00 +26°C° 0.2 mm 1 mps 753 mmHg 86%
    03:00 +26°C° 0.2 mm 1 mps 753 mmHg 87%
    04:00 +26°C° 0.2 mm 1 mps 752 mmHg 87%
    05:00 +26°C° 0.1 mm 2 mps 753 mmHg 87%
    06:00 +26°C° 0.1 mm 2 mps 753 mmHg 87%
    07:00 +26°C° 0.1 mm 2 mps 753 mmHg 86%
    08:00 +27°C° 0.1 mm 2 mps 754 mmHg 83%
    09:00 +28°C° 0.1 mm 2 mps 754 mmHg 79%
    10:00 +29°C° 0.1 mm 2 mps 754 mmHg 75%
    11:00 +30°C° 0.1 mm 2 mps 754 mmHg 73%
    12:00 +31°C° 0.1 mm 2 mps 753 mmHg 71%
    13:00 +31°C° 0.1 mm 2 mps 752 mmHg 69%
    14:00 +31°C° 0.1 mm 2 mps 752 mmHg 70%
    15:00 +31°C° 0.1 mm 2 mps 751 mmHg 70%
    16:00 +31°C° 0.1 mm 3 mps 751 mmHg 71%
    17:00 +30°C° 0.5 mm 2 mps 751 mmHg 77%
    18:00 +28°C° 0.5 mm 2 mps 752 mmHg 84%
    19:00 +27°C° 0.5 mm 2 mps 752 mmHg 90%
    20:00 +27°C° 0.2 mm 2 mps 753 mmHg 89%
    21:00 +26°C° 0.2 mm 1 mps 753 mmHg 88%
    22:00 +26°C° 0.2 mm 1 mps 754 mmHg 87%
    23:00 +26°C° 0.3 mm 1 mps 753 mmHg 86%

    24 November, Saturday

    Time Temperature Precipitation Wind Pressure Humidity
    00:00 +26°C° 0.3 mm 2 mps 753 mmHg 85%
    01:00 +26°C° 0.3 mm 2 mps 753 mmHg 84%
    02:00 +26°C° 0.3 mm 2 mps 752 mmHg 83%
    03:00 +26°C° 0.3 mm 2 mps 752 mmHg 82%
    04:00 +26°C° 0.3 mm 2 mps 752 mmHg 81%
    05:00 +26°C° 0.1 mm 2 mps 752 mmHg 81%
    06:00 +26°C° 0.1 mm 2 mps 753 mmHg 81%
    07:00 +26°C° 0.1 mm 2 mps 753 mmHg 81%
    08:00 +27°C° 0.1 mm 2 mps 753 mmHg 77%
    09:00 +29°C° 0.1 mm 1 mps 754 mmHg 73%
    10:00 +30°C° 0.1 mm 1 mps 754 mmHg 69%
    11:00 +31°C° 0.1 mm 1 mps 753 mmHg 67%
    12:00 +31°C° 0.1 mm 1 mps 753 mmHg 66%
    13:00 +32°C° 0.1 mm 1 mps 752 mmHg 64%
    14:00 +32°C° 0.3 mm 2 mps 752 mmHg 67%
    15:00 +31°C° 0.3 mm 2 mps 751 mmHg 70%
    16:00 +31°C° 0.3 mm 2 mps 751 mmHg 73%
    17:00 +30°C° 0.7 mm 2 mps 751 mmHg 78%
    18:00 +28°C° 0.7 mm 2 mps 752 mmHg 84%
    19:00 +27°C° 0.7 mm 1 mps 752 mmHg 89%
    20:00 +27°C° 0.3 mm 1 mps 753 mmHg 89%
    21:00 +27°C° 0.3 mm 1 mps 753 mmHg 89%
    22:00 +27°C° 0.3 mm 1 mps 754 mmHg 89%
    23:00 +26°C° 0.4 mm 1 mps 754 mmHg 89%

    25 November, Sunday

    Time Temperature Precipitation Wind Pressure Humidity
    00:00 +26°C° 0.4 mm 1 mps 753 mmHg 88%
    01:00 +26°C° 0.4 mm 1 mps 753 mmHg 88%
    02:00 +26°C° 0.4 mm 1 mps 753 mmHg 87%
    03:00 +26°C° 0.4 mm 1 mps 752 mmHg 86%
    04:00 +26°C° 0.4 mm 1 mps 752 mmHg 85%
    05:00 +26°C° 0.5 mm 1 mps 753 mmHg 84%
    06:00 +25°C° 0.5 mm 2 mps 753 mmHg 83%
    07:00 +25°C° 0.5 mm 2 mps 753 mmHg 82%
    08:00 +28°C° 0.5 mm 2 mps 754 mmHg 75%
    09:00 +30°C° 0.5 mm 2 mps 754 mmHg 68%
    10:00 +32°C° 0.5 mm 2 mps 754 mmHg 60%
    11:00 +32°C° 0.3 mm 2 mps 754 mmHg 61%
    12:00 +34°C° 0.3 mm 3 mps 753 mmHg 61%
    13:00 +34°C° 0.3 mm 3 mps 753 mmHg 61%
    14:00 +34°C° 0.1 mm 3 mps 752 mmHg 65%
    15:00 +33°C° 0.1 mm 3 mps 752 mmHg 70%
    16:00 +31°C° 0.1 mm 3 mps 751 mmHg 74%
    17:00 +30°C° 0.5 mm 3 mps 752 mmHg 79%
    18:00 +28°C° 0.5 mm 2 mps 752 mmHg 85%
    19:00 +27°C° 0.5 mm 2 mps 753 mmHg 90%
    20:00 +27°C° 0.4 mm 2 mps 753 mmHg 90%
    21:00 +27°C° 0.4 mm 2 mps 754 mmHg 89%
    22:00 +27°C° 0.4 mm 1 mps 754 mmHg 88%
    23:00 +26°C° 0 mm 1 mps 754 mmHg 87%
    Show more